Location: Baili�vre
(50.0696°N, 4.2409°E)
Time: 20:50:28
(UTC+00:00)

Meteor 1-5 Rocket - Pass Details

Date: 08 August 2020
Orbit: 788 x 916 km, 81.2° (Epoch: 21 September)

Event Time Altitude Azimuth Distance (km) Brightness Sun altitude
Exits shadow 22:40:46 37° 205° (SSW) 1,396 4.9 -22.5°
Maximum altitude 22:43:17 76° 283° (WNW) 949 4.4 -22.6°
Drops below altitude 10° 22:49:16 10° 10° (N) 2,603 7.6 -22.9°
Sets 22:51:44 0° 12° (NNE) 3,538 8.5 -23.0°
